Regional Weather Roundup
Issued by NWS

Home | Current Version | Previous Version | Graphics & Text | Print | Product List | Glossary Off
Versions: 1 2 3 4 5 6 7 8 9 10 11 12 13 14 15 16 17 18 19 20 21 22 23 24 25 26 27 28 29 30 31 32 33 34 35 36 37 38 39 40 41 42 43 44 45 46 47 48 49 50

000
ASUS43 KMKX 152321
RWRWI

WISCONSIN REGIONAL WEATHER ROUNDUP
NATIONAL WEATHER SERVICE MILWAUKEE/SULLIVAN WI
600 PM CDT MON SEP 15 2014

NOTE: "FAIR" INDICATES FEW OR NO CLOUDS BELOW 12,000 FEET WITH NO
SIGNIFICANT WEATHER AND/OR OBSTRUCTIONS TO VISIBILITY.

WIZ001-002-006>008-014>016-023>028-160000-
NORTHWEST WISCONSIN

CITY           SKY/WX    TMP DP  RH WIND       PRES   REMARKS
SUPERIOR ARPT  MOSUNNY   58  39  48 W5        30.16S
ASHLAND        SUNNY     55  37  50 W6        30.16S
HAYWARD        MOSUNNY   56  33  42 VRB5      30.17S
SIREN          SUNNY     58  35  43 NW8       30.18S
RICE LAKE      MOSUNNY   56  37  47 NW5       30.19R
LADYSMITH      MOSUNNY   57  38  49 NW9       30.18R
EAU CLAIRE     MOSUNNY   59  37  44 NW10      30.17R
MENOMONIE      CLEAR     60  36  40 NW10      30.18S
NEW RICHMOND   SUNNY     58  36  43 W7        30.19S
OSCEOLA        SUNNY     59  37  44 NW6       30.21S
$$

WIZ003>005-009-010-017-018-160000-
NORTH CENTRAL WISCONSIN

CITY           SKY/WX    TMP DP  RH WIND       PRES   REMARKS
WOODRUFF       SUNNY     55  37  51 NW8G16    30.15R
RHINELANDER    MOSUNNY   55  36  48 VRB7      30.13R
EAGLE RIVER    MOSUNNY   54  35  48 NW13      30.13R
LAND O LAKES   SUNNY     52  36  54 NW8       30.14R
PHILLIPS       MOSUNNY   53  36  53 N8        30.15R
TOMAHAWK       MOSUNNY   55  35  47 W7G16     30.14R
MEDFORD        SUNNY     55  36  48 NW9       30.14S
MERRILL        PTSUNNY   57  39  50 NW9       30.13R
$$

WIZ029-030-035-036-043>047-160000-
CENTRAL WISCONSIN

CITY           SKY/WX    TMP DP  RH WIND       PRES   REMARKS
WAUSAU         SUNNY     59  38  45 NW8       30.11R
MOSINEE        MOSUNNY   57  41  54 NW9       30.14R
MARSHFIELD     MOSUNNY   60  39  45 N10       30.13S
STEVENS POINT  MOSUNNY   58  41  53 NW8       30.13S
WAUPACA        CLOUDY    62  49  62 SW6       30.12S
WAUTOMA        SUNNY     60  48  64 NW7       30.14R
WISC RAPIDS    LGT RAIN  59  44  57 NW8       30.14S
CAMP DOUGLAS   PTSUNNY   59  52  77 NW7       30.15R
$$

WIZ011>013-019>022-031-037>040-048>050-160000-
NORTHEAST WISCONSIN

CITY           SKY/WX    TMP DP  RH WIND       PRES   REMARKS
ANTIGO         MOSUNNY   56  40  54 NW8       30.12R
STURGEON BAY   MOCLDY    57  45  62 SW6       30.10S
GREEN BAY      MOSUNNY   59  49  69 SW5       30.11R
MANITOWOC      MOSUNNY   58  49  72 W5        30.12R
APPLETON       MOSUNNY   57  46  67 W6        30.12S
CLINTONVILLE   PTSUNNY   61  41  48 N3        30.11S
OSHKOSH        SUNNY     58  48  69 W5        30.12R
$$

WIZ032>034-041-042-053>061-160000-
SOUTHWEST WISCONSIN

CITY           SKY/WX    TMP DP  RH WIND       PRES   REMARKS
LA CROSSE      SUNNY     62  47  57 NW10      30.16S
SPARTA         MOSUNNY   60  45  57 NW6       30.16S
VIROQUA        FAIR      57  45  64 N7        30.16S
BOSCOBEL       SUNNY     61  44  53 N5        30.16S
PRAIRIE DU CHI SUNNY     58  42  56 N5        30.17R
PLATTEVILLE    FAIR      56  48  74 CALM      30.17R
$$

WIZ056-057-062-063-064-067-068-160000-
SOUTH CENTRAL WISCONSIN

CITY           SKY/WX    TMP DP  RH WIND       PRES   REMARKS
BARABOO/DELLS  SUNNY     57  44  61 CALM      30.15R
LONE ROCK      SUNNY     62  44  51 NW7       30.16R
WATERTOWN      PTSUNNY   55  48  78 NW6       30.14R
MADISON        PTSUNNY   57  47  69 NW7       30.15R
MIDDLETON      FAIR      58  47  66 N6        30.16R
MONROE         CLOUDY    54  48  82 N6        30.15R
JANESVILLE     PTSUNNY   55  48  76 N8        30.13S
$$

WIZ051-052-058>065-066-070>072-160000-
SOUTHEAST WISCONSIN

CITY           SKY/WX    TMP DP  RH WIND       PRES   REMARKS
MILWAUKEE      PTSUNNY   55  49  80 N3        30.13R
WAUKESHA       PTSUNNY   52  48  87 N5        30.14R
MILWAUKEE/TIMM PTSUNNY   55  46  71 N5        30.13S
RACINE         CLOUDY    54  50  86 N7        30.15R
BURLINGTON     CLOUDY    53  47  81 N6        30.13R
KENOSHA        CLOUDY    54  52  93 N6        30.14R
FOND DU LAC    SUNNY     57  47  69 MISG      30.13R
SHEBOYGAN      PTSUNNY   56  51  84 W6        30.12S
WEST BEND      PTSUNNY   54  46  76 NW7       30.14R
JUNEAU         MOSUNNY   54  46  76 CALM      30.15R
$$

LSZ147-162-160000-
LAKE SUPERIOR

STATION/POSITION TIME  TEMP    WIND        PRES    WAVE
                       AIR SEA DIR/SP/G            HT/PER
                 (UTC) (F)     (DEG/KT/KT) (MB)    (FT/S)
W MID LAKE BUOY  2250   51 48  230/ 10/ 12 1019.8R   1/ 4
DEVILS ISLAND    2300   54     230/ 11/ 14 1020.7R
PORT WING        2200   57     250/  8/ 11 1021.0F
SAXON HARBOR     2200   57     270/  3/ 10 1021.0S
$$

LMZ867-665-643>646-160000-
LAKE MICHIGAN

STATION/POSITION TIME  TEMP    WIND        PRES    WAVE
                       AIR SEA DIR/SP/G            HT/PER
                 (UTC) (F)     (DEG/KT/KT) (MB)    (FT/S)
N MID LAKE BUOY  2250   56 60  230/  8/ 10 1019.0R   1/ 5
NORTHPORT PIER   2200   62     170/  3/  4 1018.6R
KEWAUNEE LAKESHO 2200   59     300/  4/  7 1018.2F
SHEBOYGAN LAKESH 2300   55 49  300/  4/  5 1020.5R
PORT WASHINGTON  2200   56     300/  4/  6 1020.3S
ATWATER BUOY     2300   55     340/  6/  6 1021.0R
MILWAUKEE LAKESH 2300   55      20/  2/  4   N/A
S MID LAKE BUOY  2250   56 64  360/ 16/ 17 1019.3R   3/ 4
KENOSHA   LAKESH 2300   54     360/ 13/ 15 1020.0R
$$

TC  - TEMPERATURE IN CELSIUS
VSB - VISIBILITY IN STATUTE MILES
WCI - WIND CHILL INDEX
HX  - HEAT INDEX



USA.gov is the U.S. government's official web portal to all federal, state and local government web resources and services.